Погода в Горнешно

Россия / Новгородская область     58°16′32″N   33°14′21″E
темп.,
°C
ветер,
м/с
пор.,
м/с
влажн.,
%
обл.,
%
осадки,
мм/ч
давл.,
гПа
погр.,
м
29 мая, вс
вс2900:00+6юз269734 0.0 1002129
03:00+4юз2798100 0.0 1003156
06:00+6зюз3792100 0.0 1004241
09:00+10зюз467199 0.1 1005740
12:00+12зюз4668100 0.8 10071359
15:00+12зюз567384 2.1 10081149
18:00+12зюз478497 1.3 1010790
21:00+9юз399350 1.6 1011263
30 мая, пн
пн3000:00+6юз39966 0.0 1013192
03:00+5юз39975 0.0 1015170
06:00+6юз38910 0.0 1016187
09:00+13зюз35630 0.0 1016520
12:00+17юз34455 0.0 10171711
15:00+19зюз233654 0.0 10162293
18:00+17ююз2451100 0.0 1016882
21:00+12ююв277633 0.0 1017137
31 мая, вт
вт3100:00+11ююв2584100 0.0 101790
03:00+9вюв3891100 0.0 1017176
06:00+11юв41382100 0.0 1016702
09:00+12юв5118399 0.0 1016766
12:00+13юв4888100 0.2 1016700
15:00+14ююв3583100 0.3 1016742
18:00+15юв2578100 0.2 1016573
21:00+13ююв2587100 0.3 1016105
1 июня, ср
ср100:00+10юз22875 0.1 101733
03:00+8юз37931 0.1 1019133
06:00+9юз27910 0.0 1019196
09:00+14зюз35590 0.0 1020828
12:00+18юз344126 0.0 10201577
15:00+20юз353888 0.0 10192495
18:00+17св1158100 0.0 101930
21:00+15вюв2567100 0.0 1018123
2 июня, чт
чт200:00+13юв3872100 0.0 1018167
03:00+12юв31078100 0.0 1017233
06:00+13юв4127787 0.0 1015398
09:00+15юв31079100 0.4 1014646
12:00+19ю6106593 0.4 10131549
15:00+20ююз48484 1.1 10121998
18:00+19зюз46515 0.0 10121214
21:00+13юз257710 0.0 101293